Cotulla, TX

9:12 PM CST on December 10, 2019 (GMT -0600)
Cotulla-La Salle County

Weather History for KCOT - August, 2019

Change the Weather History Date:

Tuesday, August 20, 2019

  Actual Average Record
Temperature  
Mean Temperature 90 °F -  
Max Temperature 102 °F 95 °F 104 °F (1997)
Min Temperature 79 °F 73 °F 71 °F (2008)
Cooling Degree Days 26    
Growing Degree Days 40 (Base 50)    
Moisture  
Dew Point 67 °F    
Average Humidity 52    
Maximum Humidity 90    
Minimum Humidity 19    
Precipitation  
Precipitation 0.00 in - - ()
Sea Level Pressure  
Sea Level Pressure 29.95 in    
Wind  
Wind Speed 10 mph ()    
Max Wind Speed 21 mph    
Max Gust Speed 29 mph    
Visibility 9.5 miles    
Events      
Averages and records for this station are not official NWS values.
T = Trace of Precipitation, MM = Missing Value Source: Averaged Metar Reports

Daily Weather History Graph

Daily Weather History Graph

Search for Another Location

Airport or City:

Astronomy

Aug. 20, 2019 Rise Set
Actual Time 7:08 AM CDT 8:11 PM CDT
Civil Twilight 6:44 AM CDT 8:35 PM CDT
Nautical Twilight 6:15 AM CDT 9:04 PM CDT
Astronomical Twilight 5:45 AM CDT 9:34 PM CDT
Moon 11:24 PM CDT (8/20) 11:27 AM CDT (8/20)
Length of Visible Light 13h 51m
Length of Day
13h 02m
Waning Gibbous, 77% of the Moon is Illuminated
Aug 20
Waning Gibbous
Aug 23
Last Quarter
Aug 30
New
Sep 5
First Quarter
Sep 13
Full

Hourly Weather History & Observations

Time (CDT) Temp. Heat Index Dew Point Humidity Pressure Visibility Wind Dir Wind Speed Gust Speed Precip Events Conditions
12:53 AM 86.0 °F 93.8 °F 73.9 °F 67% 29.95 in 10.0 mi SE 13.8 mph - N/A   Clear
2:53 AM 82.9 °F 90.2 °F 75.0 °F 77% 29.95 in 10.0 mi SE 9.2 mph - N/A   Clear
3:53 AM 82.0 °F 88.6 °F 75.0 °F 79% 29.94 in 10.0 mi ESE 8.1 mph - N/A   Clear
4:53 AM 81.0 °F 86.7 °F 75.0 °F 82% 29.94 in 9.0 mi ESE 6.9 mph - N/A   Clear
6:53 AM 79.0 °F - 75.9 °F 90% 29.95 in 8.0 mi ESE 4.6 mph - N/A   Clear
7:53 AM 80.1 °F 85.4 °F 75.9 °F 87% 29.97 in 7.0 mi ESE 5.8 mph - N/A   Clear
8:53 AM 82.9 °F 90.8 °F 75.9 °F 79% 29.99 in 8.0 mi ESE 10.4 mph - N/A   Clear
9:27 AM 84.9 °F 94.1 °F 75.9 °F 74% 30.01 in 8.0 mi SE 11.5 mph - N/A   Mostly Cloudy
9:53 AM 87.1 °F 96.3 °F 75.0 °F 67% 29.99 in 9.0 mi SSE 13.8 mph - N/A   Mostly Cloudy
10:03 AM 87.1 °F 95.4 °F 73.9 °F 65% 30.01 in 9.0 mi SSE 11.5 mph - N/A   Scattered Clouds
10:53 AM 90.0 °F 95.4 °F 70.0 °F 52% 29.99 in 10.0 mi SSE 10.4 mph - N/A   Clear
11:53 AM 93.0 °F 97.4 °F 68.0 °F 44% 29.99 in 10.0 mi SSE 9.2 mph 18.4 mph N/A   Partly Cloudy
12:53 PM 95.0 °F 97.4 °F 64.9 °F 37% 29.98 in 10.0 mi SE 10.4 mph 18.4 mph N/A   Partly Cloudy
1:53 PM 98.1 °F 98.1 °F 60.1 °F 28% 29.95 in 10.0 mi South 8.1 mph 19.6 mph N/A   Clear
2:53 PM 100.9 °F 100.0 °F 57.0 °F 23% 29.93 in 10.0 mi ESE 13.8 mph 18.4 mph N/A   Clear
3:53 PM 102.9 °F 101.4 °F 54.0 °F 20% 29.90 in 10.0 mi South 9.2 mph 20.7 mph N/A   Partly Cloudy
4:53 PM 102.0 °F 100.1 °F 54.0 °F 20% 29.89 in 10.0 mi SE 9.2 mph 19.6 mph N/A   Partly Cloudy
5:53 PM 102.0 °F 99.7 °F 53.1 °F 19% 29.88 in 10.0 mi SSE 10.4 mph 19.6 mph N/A   Partly Cloudy
6:53 PM 102.0 °F 99.7 °F 53.1 °F 19% 29.88 in 10.0 mi SE 13.8 mph 18.4 mph N/A   Scattered Clouds
7:53 PM 98.1 °F 96.1 °F 54.0 °F 23% 29.88 in 10.0 mi SE 12.7 mph - N/A   Partly Cloudy
8:53 PM 93.0 °F 96.4 °F 66.9 °F 42% 29.90 in 10.0 mi SSE 17.3 mph - N/A   Clear
9:53 PM 90.0 °F 92.8 °F 66.9 °F 46% 29.93 in 10.0 mi SE 20.7 mph 28.8 mph N/A   Partly Cloudy
10:53 PM 87.1 °F 90.6 °F 68.0 °F 53% 29.95 in 10.0 mi SSE 16.1 mph 25.3 mph N/A   Clear
11:53 PM 84.9 °F 90.1 °F 71.1 °F 63% 29.96 in 10.0 mi SE 16.1 mph - N/A   Clear